This is the latest recevied weather packets stored in our database for station/object DL9GJ-4. If no packets are shown the sender has not sent any weather packets the latest 1 day(s).
| Time | Temp. | Humidity | Pressure | Rain* | Wind** | Luminosity | Snow |
|---|---|---|---|---|---|---|---|
| 1778025520 | 6.67° C | 49% | 1008 hPa | 0 mm | 1.34 m/s, 187° | - | - |
| 1778025160 | 6.67° C | 48% | 1008 hPa | 0 mm | 0 m/s | - | - |
| 1778024800 | 6.67° C | 48% | 1008 hPa | 0 mm | 0 m/s | - | - |
| 1778024440 | 7.22° C | 48% | 1008 hPa | 0 mm | 0 m/s | - | - |
| 1778023714 | 7.78° C | 48% | 1008 hPa | 0 mm | 0 m/s | - | - |
| 1778023351 | 7.78° C | 48% | 1008 hPa | 0 mm | 0 m/s | - | - |
| 1778022627 | 7.78° C | 47% | 1008 hPa | 0 mm | 0 m/s | - | - |
| 1778022265 | 7.78° C | 47% | 1008 hPa | 0 mm | 0 m/s | - | - |
| 1778020809 | 9.44° C | 46% | 1008 hPa | 0 mm | 0 m/s | - | - |
| 1778020089 | 10° C | 47% | 1008 hPa | 0 mm | 0 m/s | - | - |
| 1778019724 | 10° C | 47% | 1008 hPa | 0 mm | 0.89 m/s, 188° | - | - |
| 1778019358 | 10° C | 46% | 1008 hPa | 0 mm | 1.34 m/s, 215° | - | - |
| 1778018995 | 10.56° C | 46% | 1008 hPa | 0 mm | 1.79 m/s, 153° | - | - |
| 1778018271 | 10.56° C | 47% | 1008 hPa | 0 mm | 1.34 m/s, 162° | - | - |
| 1778017908 | 10° C | 51% | 1008 hPa | 0 mm | 0.89 m/s, 204° | - | - |
| 1778017547 | 10° C | 53% | 1008 hPa | 0 mm | 1.34 m/s, 180° | - | - |
| 1778016456 | 10° C | 57% | 1008 hPa | 0 mm | 1.34 m/s, 214° | - | - |
| 1778015733 | 10° C | 57% | 1008 hPa | 2.79 mm | 1.34 m/s, 201° | - | - |
| 1778015368 | 10° C | 57% | 1008 hPa | 2.79 mm | 1.34 m/s, 230° | - | - |
| 1778014642 | 10° C | 57% | 1008 hPa | 2.79 mm | 0 m/s | - | - |
| 1778014280 | 10° C | 58% | 1008 hPa | 2.79 mm | 0.89 m/s, 216° | - | - |
| 1778013919 | 10° C | 60% | 1008 hPa | 2.79 mm | 0.89 m/s, 192° | - | - |
| 1778013556 | 10° C | 60% | 1008 hPa | 2.79 mm | 1.34 m/s, 209° | - | - |
| 1778013194 | 10° C | 59% | 1008 hPa | 2.79 mm | 1.34 m/s, 206° | - | - |
| 1778012833 | 10° C | 60% | 1008 hPa | 2.79 mm | 0.89 m/s, 285° | - | - |
* Rain latest hour (hover to see other rain measurements)
** Current wind speed in m/s (hover to see current wind gust speed)